Location: Anciles
(42.5833°N, 0.5167°E)
Time: 09:23:53
(UTC+00:00)

YAOGAN 1 - Pass Details

Date: 10 December 2019
Orbit: 619 x 621 km, 98.0° (Epoch: 21 January)

Event Time Altitude Azimuth Distance (km) Brightness Sun altitude
Rises 19:08:39 0° 190° (S) 2,883 6.2 -29.3°
Reaches altitude 10° 19:11:02 10° 201° (SSW) 1,982 5.4 -29.8°
Maximum altitude 19:14:51 31° 263° (W) 1,103 4.3 -30.5°
Drops below altitude 10° 19:18:43 10° 326° (NNW) 1,997 5.5 -31.2°
Sets 19:21:07 0° 337° (NNW) 2,908 6.2 -31.6°
